Location: Observatory
(52.1446°N, 0.4624°W)
Time: 02:57:56
(UTC+01:00)

ISS - Pass Details

Date: 25 July 2021
Orbit: 419 x 421 km, 51.6° (Epoch: 03 August)

Event Time Altitude Azimuth Distance (km) Brightness Sun altitude
Rises 00:28:26 0° 279° (W) 2,373 0.3 -17.7°
Reaches altitude 10° 00:31:12 10° 255° (WSW) 1,504 -1.0 -17.7°
Enters shadow 00:31:38 12° 248° (WSW) 1,410 -1.2 -17.8°
